Theta_e
325 324 324 324 324 325 325 325 324 324 323 323 321 322 321 320 319 318 316 315 314 314 313 313 313 313 314 316 317 316 314 312 313 312 312 312 312 312 313 314 314 318 326
325 325 324 324 325 327 327 325 325 324 324 323 322 322 321 320 320 318 316 315 314 314 313 313 313 312 313 314 315 314 314 313 312 313 312 312 311 312 312 313 314 319 324
326 325 325 325 327 326 326 325 324 324 324 323 323 322 321 321 320 318 316 315 315 314 313 313 312 312 310 309 308 309 311 311 311 312 312 312 311 311 311 312 313 317 321
327 326 326 326 326 327 326 326 325 325 324 323 323 322 321 321 320 317 316 315 314 313 313 312 311 309 307 308 308 308 309 310 311 312 312 312 311 311 311 312 313 318 320
326 327 326 326 327 327 327 326 326 325 324 324 323 322 322 321 318 316 315 313 312 310 308 307 306 306 306 307 309 308 308 309 310 311 312 312 312 311 311 312 313 314 319
325 326 327 328 328 328 328 327 326 325 324 324 323 322 321 319 317 315 313 311 308 306 306 306 306 306 306 306 306 306 306 308 308 308 309 309 310 311 311 311 312 314 318
327 326 326 327 327 327 327 326 325 325 324 323 322 321 320 318 315 313 310 306 306 306 306 306 305 304 304 304 304 304 305 306 306 307 307 307 308 309 312 312 311 311 313
327 327 327 326 327 327 326 326 325 325 324 323 321 318 316 314 312 309 306 306 306 305 305 304 303 302 303 302 302 303 303 304 305 305 306 306 307 307 308 309 311 311 311
326 327 327 327 327 326 325 325 324 323 322 319 315 312 311 311 308 306 306 305 304 304 303 302 302 302 302 302 301 302 302 303 303 303 304 305 306 307 307 309 311 311 312
319 322 324 326 326 325 324 323 321 318 315 312 310 309 308 307 306 305 304 303 302 302 301 302 303 301 301 301 300 301 301 302 302 303 304 305 305 306 306 307 308 311 311
316 318 320 321 321 321 317 315 313 311 310 309 308 307 306 305 304 303 302 301 301 300 300 300 300 300 300 300 300 300 300 301 301 301 301 302 304 304 306 306 307 309 311
318 315 313 313 313 312 312 310 310 309 307 306 306 305 304 303 302 301 302 301 300 299 299 299 300 301 300 299 299 299 299 299 299 299 300 301 302 305 306 307 308 309 310
316 315 315 313 311 310 310 309 308 307 306 304 302 301 302 301 302 302 301 300 299 298 298 298 299 299 299 300 301 300 299 298 298 299 299 300 301 303 305 307 308 308 309
313 312 312 313 310 308 308 307 306 304 302 301 301 300 300 301 302 302 300 300 299 297 298 299 298 299 300 301 300 300 300 299 299 299 299 300 301 302 303 306 308 309 309
312 311 310 309 308 305 304 303 303 301 301 300 300 300 299 299 301 299 299 299 299 299 299 298 298 299 299 300 301 301 301 301 300 300 300 300 300 301 302 304 307 310 310
307 306 305 304 303 302 301 301 300 301 301 301 300 299 299 298 299 300 301 299 300 301 298 297 298 300 301 301 302 302 302 302 302 301 301 301 300 301 301 303 305 309 310
307 305 303 303 301 301 300 299 300 301 302 301 301 301 300 300 300 300 301 300 300 300 299 300 302 302 303 303 303 303 303 303 304 302 302 301 301 301 301 302 304 307 311
305 303 302 301 300 299 299 299 299 298 297 299 302 301 300 299 299 298 299 299 300 301 301 301 302 301 301 301 301 301 301 301 302 302 303 302 301 301 301 302 303 306 309
303 301 300 299 299 299 299 299 299 298 298 297 298 299 298 298 297 298 298 298 299 300 300 300 300 300 300 300 300 300 300 300 300 301 302 303 302 301 301 302 303 304 310
301 300 300 300 299 299 299 298 298 297 297 297 297 297 297 296 296 297 298 298 298 298 298 298 298 298 299 299 299 298 298 298 299 300 301 302 304 302 302 302 303 304 307
300 300 299 299 298 298 298 297 297 297 297 296 296 295 295 295 295 295 296 296 296 297 297 297 297 297 297 297 297 297 296 298 300 304 304 303 304 302 302 302 303 304 310
300 299 299 298 298 297 297 297 296 295 294 294 294 295 294 294 294 295 295 295 295 296 296 296 296 296 297 296 296 295 296 298 304 304 303 303 303 303 303 303 304 305 308
300 299 298 298 297 297 296 294 294 294 294 294 294 293 292 293 293 294 294 294 294 294 295 295 296 296 295 295 295 295 297 303 305 302 303 303 303 303 303 304 305 307 309
299 299 298 298 297 296 294 293 293 294 294 293 293 292 291 292 292 293 293 293 293 294 295 295 295 295 294 296 299 304 306 309 306 303 303 303 303 306 309 310 310 312 310
299 298 298 297 295 293 293 294 293 293 293 293 293 293 293 293 292 292 292 292 293 294 295 295 295 294 294 300 307 312 312 311 307 306 306 308 307 309 310 310 314 313 312
297 297 295 293 293 293 294 293 293 292 292 292 293 294 294 292 292 292 292 292 293 294 295 295 295 294 296 303 309 316 314 313 314 308 307 310 310 310 315 314 313 312 311
Wind_Speed
40 41 42 44 39 34 31 29 27 24 20 16 12 10 7 5 5 7 8 7 8 9 9 12 15 15 16 16 16 17 18 17 17 25 19 18 29 28 26 23 19 15 13
39 37 37 41 38 34 31 29 27 25 20 16 14 12 10 8 8 8 10 10 10 12 14 15 19 17 17 15 17 20 22 23 23 24 21 14 23 27 26 23 21 10 12
33 33 38 41 38 34 32 30 28 25 21 18 17 15 12 9 9 10 12 13 13 15 16 18 20 19 21 23 22 21 19 21 21 21 23 18 21 24 25 23 21 13 10
33 34 39 42 40 35 31 31 29 26 23 21 18 16 13 12 11 11 13 14 15 17 18 20 24 26 25 22 20 20 18 18 20 22 22 18 18 20 21 19 20 15 11
33 36 38 41 38 34 32 33 31 27 23 20 19 16 14 13 12 13 15 16 18 22 24 25 25 22 21 20 19 21 23 20 19 19 18 17 14 13 16 16 14 16 11
29 33 39 41 38 35 34 34 31 26 23 22 21 18 16 13 13 16 18 22 23 23 24 25 24 24 24 23 23 25 26 25 22 20 21 19 20 16 20 19 14 8 4
27 27 32 38 37 34 33 30 26 24 22 20 17 15 12 13 16 19 22 22 21 22 23 25 27 26 26 27 28 28 28 29 31 32 25 22 22 20 17 15 16 13 10
20 21 26 28 30 29 26 24 23 21 21 19 15 12 12 14 17 20 20 21 22 24 25 26 29 31 31 29 26 24 25 25 27 27 28 30 29 25 25 24 22 21 18
20 19 19 22 22 22 23 22 20 21 19 16 12 11 12 15 17 19 19 22 26 29 28 31 29 32 32 28 26 25 25 27 24 26 28 30 30 27 23 19 18 15 10
8 13 19 22 23 23 21 22 21 18 15 12 9 8 11 16 18 18 21 24 30 29 27 31 32 31 29 26 26 25 26 26 21 22 21 23 24 28 27 28 24 18 16
18 17 14 11 14 18 20 17 16 13 8 6 6 8 13 16 20 22 23 25 29 25 21 25 26 28 28 28 27 29 30 28 25 23 25 25 23 25 26 27 31 29 22
21 21 21 19 18 18 18 14 9 5 2 4 9 12 16 19 21 22 24 21 21 24 23 28 29 33 31 33 34 35 35 33 30 27 26 26 24 24 25 26 28 30 31
20 19 16 14 12 9 11 10 7 1 3 4 7 13 22 22 21 21 21 20 22 24 27 31 34 37 36 36 35 31 28 30 29 26 27 28 27 27 26 26 29 31 31
13 15 16 15 15 13 9 5 3 3 5 7 11 16 19 22 23 23 25 26 27 26 26 31 34 37 37 35 33 32 29 28 28 28 28 28 26 25 27 30 29 30 28
23 17 14 10 9 9 8 4 5 5 3 7 13 14 16 18 23 21 24 29 30 29 28 32 31 26 25 24 24 25 26 26 26 27 27 25 25 26 28 29 31 28 27
21 18 16 13 9 8 7 7 1 4 5 10 10 11 15 20 21 23 25 30 25 25 26 23 24 22 23 23 24 26 26 27 29 30 28 27 26 26 26 28 30 31 29
17 15 13 11 9 6 2 1 3 2 3 4 8 12 13 18 21 24 24 26 26 20 19 21 21 21 23 26 27 27 28 27 25 27 30 28 27 26 27 27 29 31 26
12 12 12 10 8 5 4 3 7 6 8 13 14 16 16 19 23 25 21 23 21 17 17 19 22 24 27 28 29 28 28 27 26 27 27 27 28 27 24 27 28 29 29
12 13 12 10 8 6 4 4 4 6 10 12 20 22 21 22 24 18 16 16 19 21 22 23 25 28 30 30 30 29 28 27 27 25 25 26 27 28 27 27 28 30 26
12 10 8 8 7 5 3 5 6 9 12 16 17 19 24 25 20 19 18 19 20 22 24 26 30 31 31 30 29 27 27 26 24 26 28 27 26 31 29 28 28 28 30
14 10 7 7 4 3 4 5 7 10 12 14 16 18 16 19 17 18 21 22 24 25 28 30 32 31 31 30 29 27 26 25 25 23 21 22 26 28 29 28 27 28 25
14 11 9 6 4 3 4 5 6 8 11 14 17 18 16 14 16 19 22 24 28 30 31 31 31 31 30 31 30 28 26 25 20 14 16 16 21 24 24 25 25 25 19
13 11 8 6 5 5 6 7 9 11 13 14 15 16 17 17 20 22 25 29 31 32 32 31 32 32 32 30 27 23 23 22 10 5 8 10 15 19 20 23 22 22 21
13 9 7 8 6 6 8 10 11 12 13 15 18 17 17 19 22 25 26 28 31 32 33 34 32 33 33 26 22 18 12 9 3 5 7 12 19 17 17 22 24 23 25
11 10 11 8 8 8 10 12 14 16 18 19 21 24 26 26 23 24 28 28 31 33 36 36 35 34 28 20 19 15 14 5 4 4 5 9 14 17 12 20 20 32 33
16 15 13 12 13 13 14 15 16 18 20 23 25 27 27 25 28 27 31 31 33 34 37 37 38 36 26 22 17 11 11 7 6 9 8 7 10 13 20 28 27 29 29
Wind_Direction
194 197 200 202 196 189 196 194 193 189 189 190 194 200 211 220 252 268 280 289 294 301 313 311 305 305 301 291 278 273 272 258 266 289 290 301 310 320 330 334 333 329 320
190 191 191 197 192 189 193 196 192 192 191 198 199 208 213 225 245 266 280 283 292 305 310 301 298 303 296 293 285 280 280 280 273 280 294 290 304 316 321 325 333 322 312
180 181 187 190 187 189 190 195 195 194 197 199 204 210 218 233 251 267 282 296 302 303 296 290 294 294 296 299 297 292 285 281 274 268 280 287 299 308 316 321 326 314 299
172 176 185 189 189 192 192 194 198 199 201 201 208 212 222 240 257 278 287 296 301 297 290 287 290 294 298 296 296 294 289 283 279 273 278 279 283 295 303 313 321 328 310
170 178 185 189 190 193 195 199 200 202 203 203 207 213 228 245 264 280 291 297 298 295 291 291 293 297 296 293 288 285 283 278 280 284 287 279 263 266 286 301 303 318 303
176 178 186 187 189 190 196 201 201 197 200 205 208 215 228 248 274 288 295 298 295 292 294 296 299 299 297 295 286 279 276 270 273 272 273 275 280 268 273 275 283 310 303
181 182 186 189 190 192 201 200 195 194 198 201 210 222 241 266 281 288 293 292 292 292 292 298 301 299 301 294 291 288 283 277 270 268 266 262 264 265 271 260 257 263 270
173 174 187 184 186 192 194 194 191 194 197 201 210 224 246 267 283 290 294 293 291 289 293 296 298 298 297 297 292 288 283 277 272 271 263 263 263 266 259 258 259 260 261
164 157 164 180 186 187 187 190 190 190 189 194 204 229 260 282 293 296 298 296 294 293 295 296 301 298 298 297 288 277 275 270 271 272 269 265 264 264 266 260 247 225 227
108 157 164 171 182 180 184 179 180 177 180 191 215 255 282 296 299 300 299 300 295 295 296 303 301 295 293 290 279 274 273 274 274 270 268 268 263 257 254 251 248 234 224
92 89 107 134 155 156 152 155 155 164 181 217 263 292 303 299 296 297 298 293 291 296 300 297 291 294 290 286 281 273 267 275 274 270 267 264 257 251 252 251 244 231 221
94 102 108 117 129 137 140 144 151 162 222 309 321 305 292 289 291 298 297 293 292 292 291 285 287 293 286 287 284 281 278 276 269 263 258 253 245 239 237 235 239 234 224
145 145 134 142 154 149 152 155 148 141 315 288 281 289 288 294 301 307 306 300 299 298 288 285 296 290 293 295 294 289 284 268 255 249 248 247 241 240 234 229 229 237 237
162 152 158 160 175 166 152 145 126 183 216 266 278 280 292 303 313 319 313 314 312 305 295 298 288 293 295 294 293 291 279 264 249 244 245 247 245 236 227 222 218 213 215
177 157 164 166 168 143 134 127 145 227 257 275 286 294 298 309 310 312 310 307 304 303 304 291 289 285 282 280 278 274 269 262 252 250 246 242 236 232 229 223 220 210 203
155 156 157 153 145 133 155 168 208 322 334 304 289 294 316 302 309 315 312 305 304 300 290 275 277 277 277 280 282 281 273 261 253 251 244 237 232 227 226 222 219 215 202
153 154 148 149 153 150 151 60 40 328 285 288 343 341 325 312 318 316 311 302 300 300 281 283 281 285 289 294 289 285 282 275 267 249 242 234 228 225 218 218 217 216 207
152 153 150 149 139 125 100 53 30 352 335 335 344 341 332 324 327 312 302 304 305 302 290 292 296 301 301 294 293 289 286 282 270 260 251 234 222 218 213 215 214 215 208
152 149 141 130 118 123 105 67 31 349 345 333 344 336 338 328 318 309 307 299 304 307 311 307 309 304 298 296 292 290 286 280 272 262 253 244 220 212 212 211 211 214 210
141 135 129 124 116 96 69 44 15 3 352 342 332 324 330 329 329 323 321 318 317 315 313 315 310 302 298 296 296 294 290 282 268 255 245 239 228 205 208 205 205 207 212
138 132 125 116 96 75 48 16 1 351 333 317 323 337 335 325 318 315 317 322 322 319 320 313 306 302 302 302 301 296 290 284 277 258 245 247 224 198 201 200 203 207 211
148 143 135 124 116 77 25 2 353 347 337 340 344 350 352 339 329 327 327 327 331 328 317 310 308 311 310 308 304 297 292 285 271 268 260 228 191 190 187 191 198 203 214
160 145 133 123 96 65 38 30 12 7 1 7 3 360 357 346 343 340 339 341 336 326 327 326 324 322 321 316 313 302 292 296 274 262 212 187 179 186 189 188 194 189 200
160 140 130 107 82 61 45 35 33 33 33 30 27 20 11 2 357 356 347 345 340 341 343 338 335 333 333 332 333 332 313 322 265 191 212 225 200 221 183 158 178 176 182
146 132 114 101 94 77 69 65 62 56 50 43 37 33 29 22 7 1 357 354 352 352 350 349 348 349 352 354 354 15 36 27 102 165 192 178 183 169 200 191 147 157 156
135 119 110 106 101 93 85 75 63 55 49 45 42 38 33 22 19 13 12 4 1 0 359 359 2 8 18 22 18 21 40 53 2 160 182 182 187 200 138 143 146 150 152